Flag for India Weather past 2 weeks in Jalandhar, Punjab, India

Now
79 °F

Fog.


Feels Like: 83 °F
Forecast: 76 / 100 °F
Wind: No wind

Location: Amritsar Airport

Current Time: Aug 29, 2014 at 9:12:48 AM

Latest Report: Aug 29, 2014 at 8:00 AM


Visibility: 2 mi

Pressure: 29.74 "Hg

Humidity: 94%

Dew point: 77 °F

Location of JalandharLocation

Historic Weather in Jalandhar — Graph

°F

Jalandhar temperature yesterday

Maximum temperature yesterday: 86 °F (at 12:30 PM)
Minimum temperature yesterday: 77 °F (at 11:00 PM)
Average temperature yesterday: 81 °F

Past Weeks' High & Low Weather Summary

 TemperatureHumidityPressure
High99 °F (Aug 25, 2:00 PM)100% (Aug 15, 3:00 AM)29.80 "Hg (Aug 15, 3:00 AM)
Low73 °F (Aug 16, 9:30 AM)34% (Aug 26, 2:30 PM)29.39 "Hg (Aug 14, 6:00 PM)
Average85 °F76%29.64 "Hg
* Reported Aug 14 7:30 AM — Aug 29 7:30 AM, Jalandhar, Weather by CustomWeather, © 2014

Note: Actual official high and low records may vary slightly from our data, if they occured in-between our weather recording intervals... More about our weather records

Advertising

Jalandhar weather history for previous 24 hours

 ConditionsComfort  
Time TempWeatherWind HumidityBarometerVisibility
7:30 AM
Aug 29
77 °FFog.No wind100%29.74 "Hg2 mi
6:30 AM75 °FFog.No wind100%29.71 "Hg1 mi
6:00 AM75 °FFog.No wind100%29.71 "Hg2 mi
5:30 AM75 °FFog.No wind100%29.71 "Hg2 mi
4:00 AM77 °FFog.No wind94%29.71 "Hg2 mi
3:00 AM75 °FFog.No wind100%29.71 "Hg2 mi
2:30 AM75 °FFog.No wind100%29.71 "Hg2 mi
2:00 AM77 °FFog.No wind94%29.71 "Hg2 mi
1:30 AM77 °FFog.No wind94%29.71 "Hg2 mi
1:00 AM77 °FFog.No wind94%29.71 "Hg2 mi
12:30 AM77 °FFog.No wind94%29.71 "Hg2 mi
12:00 AM79 °FFog.No wind89%29.71 "Hg2 mi
11:30 PM
Aug 28
77 °FFog.No wind94%29.71 "Hg2 mi
11:00 PM77 °FFog.No wind94%29.71 "Hg2 mi
10:30 PM79 °FFog.2 mph89%29.71 "Hg2 mi
10:00 PM79 °FFog.2 mph94%29.71 "Hg2 mi
9:30 PM79 °FFog.No wind94%29.71 "Hg2 mi
9:00 PM81 °FFog.No wind89%29.71 "Hg2 mi
8:30 PM81 °FFog.No wind89%29.68 "Hg2 mi
8:00 PM81 °FFog.No wind89%29.68 "Hg2 mi
7:30 PM82 °FFog.No wind79%29.68 "Hg2 mi
7:00 PM82 °FScattered clouds.1 mph84%29.68 "Hg2 mi
6:30 PM84 °FScattered clouds.1 mph74%29.65 "Hg2 mi
6:00 PM84 °FScattered clouds.6 mph70%29.65 "Hg2 mi
5:30 PM86 °FScattered clouds.6 mph66%29.65 "Hg2 mi
5:00 PM86 °FScattered clouds.7 mph66%29.68 "Hg2 mi
4:30 PM86 °FScattered clouds.8 mph70%29.68 "Hg2 mi
4:00 PM86 °FScattered clouds.7 mph70%29.71 "Hg2 mi
3:30 PM84 °FScattered clouds.8 mph74%29.71 "Hg2 mi
3:00 PM86 °FBroken clouds.9 mph70%29.71 "Hg2 mi
2:30 PM86 °FBroken clouds.8 mph66%29.74 "Hg2 mi
2:00 PM84 °FBroken clouds.10 mph70%29.74 "Hg2 mi
1:30 PM86 °FBroken clouds.12 mph62%29.74 "Hg2 mi
1:00 PM82 °FFog.14 mph70%29.74 "Hg2 mi
12:30 PM86 °FFog.12 mph66%29.74 "Hg2 mi
12:00 PM82 °FFog.9 mph79%29.74 "Hg2 mi
11:30 AM82 °FDrizzle. More clouds than sun.2 mph74%29.77 "Hg2 mi
11:00 AM82 °FLight rain. More clouds than sun.3 mph70%29.74 "Hg2 mi
Weather by CustomWeather, © 2014

See weather overviewHow to use our weather pages